This demonstration page uses our WeatherBlox Daily Observations layout. Learn more.

Hourly Observations for August 26, 2017

Temp ( °F °C ) Dew Point ( °F °C ) Humidity (%) Winds ( mph kmh ) Pressure ( in mb ) Visibility ( mi km ) Precip ( " mm )
12:15 am 00:15 Clear 73 22.9 62 16.7 68 68 S 16 26 29.94 1014 10 16.09344 0 0
12:35 am 00:35 Clear 73 22.6 63 17 71 71 S 12 19 29.94 1014 10 16.09344 0 0
12:55 am 00:55 Clear 72 22.3 63 17.2 73 73 S 10 17 29.94 1014 10 16.09344 0 0
1:15 am 01:15 Clear 72 22.1 63 17.3 74 74 S 13 20 29.94 1014 10 16.09344 0 0
1:35 am 01:35 Clear 71 21.8 64 17.5 77 77 S 10 17 29.94 1014 10 16.09344 0 0
1:55 am 01:55 Clear 71 21.5 64 17.5 78 78 S 10 17 29.94 1014 10 16.09344 0 0
2:15 am 02:15 Clear 70 21.2 64 17.6 80 80 S 7 11 29.94 1014 10 16.09344 0 0
2:35 am 02:35 Clear 70 21 64 17.6 81 81 S 7 11 29.94 1014 10 16.09344 0 0
2:55 am 02:55 Clear 69 20.6 64 17.5 83 83 S 6 9 29.94 1014 10 16.09344 0 0
3:15 am 03:15 Clear 68 20 63 17.4 85 85 S 5 7 29.97 1015 10 16.09344 0 0
3:35 am 03:35 Clear 68 19.8 63 17.4 86 86 S 5 7 29.97 1015 10 16.09344 0 0
3:55 am 03:55 Clear 66 19 63 17.1 89 89 S 3 6 29.97 1015 10 16.09344 0 0
4:15 am 04:15 Clear 66 18.9 63 17.1 89 89 SSE 3 6 29.97 1015 10 16.09344 0 0
4:35 am 04:35 Clear 66 19 63 17.1 89 89 SSE 5 7 29.97 1015 10 16.09344 0 0
4:55 am 04:55 Clear 66 18.8 63 17.2 90 90 SSE 7 11 29.97 1015 10 16.09344 0 0
5:15 am 05:15 Clear 65 18.6 63 17.2 92 92 SSE 9 15 29.97 1015 10 16.09344 0 0
5:35 am 05:35 Clear 66 18.8 63 17.2 90 90 S 7 11 29.97 1015 10 16.09344 0 0
5:55 am 05:55 Clear 65 18.5 63 17 91 91 S 9 15 29.97 1015 10 16.09344 0 0
6:15 am 06:15 Clear 65 18.5 63 17 91 91 S 8 13 29.97 1015 10 16.09344 0 0
6:35 am 06:35 Clear 65 18.2 63 17 93 93 S 8 13 29.97 1015 10 16.09344 0 0
6:55 am 06:55 Clear 65 18.3 63 17 92 92 S 10 17 29.97 1015 10 16.09344 0 0
7:15 am 07:15 Sunny 65 18.5 63 17.1 92 92 S 8 13 29.97 1015 10 16.09344 0 0
7:35 am 07:35 Sunny 66 18.8 64 17.5 92 92 S 6 9 29.97 1015 10 16.09344 0 0
7:55 am 07:55 Sunny 66 19 64 17.5 91 91 SSW 7 11 29.97 1015 10 16.09344 0 0
8:15 am 08:15 Sunny 67 19.6 64 17.9 90 90 S 3 6 30 1016 10 16.09344 0 0
8:35 am 08:35 Sunny 68 20 64 18 88 88 Calm 30 1016 10 16.09344 0 0
8:55 am 08:55 Sunny 69 20.6 65 18.2 86 86 Calm 29.97 1015 10 16.09344 0 0
9:15 am 09:15 Sunny 70 21.1 65 18.6 86 86 Calm 29.97 1015 10 16.09344 0 0
9:35 am 09:35 Sunny 71 21.9 66 18.8 83 83 Calm 29.97 1015 10 16.09344 0 0
9:55 am 09:55 Sunny 72 22.3 66 18.9 81 81 Calm 29.97 1015 10 16.09344 0 0
10:15 am 10:15 Sunny 74 23.5 66 19.1 76 76 SW 6 9 29.97 1015 10 16.09344 0 0
10:35 am 10:35 Sunny 75 24 67 19.5 76 76 SSW 7 11 30 1016 10 16.09344 0 0
10:55 am 10:55 Sunny 76 24.3 67 19.7 76 76 SW 5 7 29.94 1014 10 16.09344 0 0
11:15 am 11:15 Sunny 76 24.7 67 19.6 73 73 S 5 7 29.94 1014 10 16.09344 0 0
11:35 am 11:35 Sunny 77 25.2 68 20.2 74 74 S 3 6 29.94 1014 10 16.09344 0 0
11:55 am 11:55 Sunny 77 25 67 19.6 72 72 Calm 29.94 1014 10 16.09344 0 0
12:15 pm 12:15 Sunny 79 26 67 19.7 68 68 Calm 29.94 1014 10 16.09344 0 0
12:35 pm 12:35 Sunny 80 26.4 68 19.8 67 67 E 3 6 29.94 1014 10 16.09344 0 0
12:55 pm 12:55 Sunny 81 27.1 69 20.4 67 67 WNW 5 7 29.97 1015 10 16.09344 0 0
1:15 pm 13:15 Partly Cloudy 82 27.5 69 20.8 67 67 W 6 9 29.97 1015 10 16.09344 0 0
1:35 pm 13:35 Partly Cloudy 80 26.8 68 19.8 66 66 SSW 3 6 29.97 1015 10 16.09344 0 0
1:55 pm 13:55 Sunny 80 26.6 68 19.9 67 67 S 6 9 29.94 1014 10 16.09344 0 0
2:15 pm 14:15 Sunny 81 27.4 69 20.3 65 65 S 7 11 29.94 1014 10 16.09344 0 0
2:35 pm 14:35 Sunny 80 26.7 67 19.7 66 66 SSE 6 9 29.94 1014 10 16.09344 0 0
2:55 pm 14:55 Sunny 80 26.5 68 20.2 68 68 SSE 6 9 29.94 1014 10 16.09344 0 0
3:15 pm 15:15 Partly Cloudy 80 26.7 69 20.6 69 69 S 6 9 29.94 1014 10 16.09344 0 0
3:35 pm 15:35 Partly Cloudy 82 27.9 69 20.8 65 65 S 5 7 29.91 1013 10 16.09344 0 0
3:55 pm 15:55 Partly Cloudy with Thunderstorms 83 28.3 69 20.8 64 64 SSE 5 7 29.88 1012 10 16.09344 0 0
4:15 pm 16:15 Sunny with Nearby Thunderstorms 84 29 68 20.1 59 59 S 7 11 29.88 1012 10 16.09344 0 0
4:35 pm 16:35 Partly Cloudy 83 28.4 68 19.8 60 60 N 6 9 29.91 1013 10 16.09344 0 0
4:55 pm 16:55 Partly Cloudy 82 27.5 69 20.5 66 66 ENE 5 7 29.88 1012 10 16.09344 0 0
5:15 pm 17:15 Partly Cloudy 83 28.5 67 19.4 58 58 E 5 7 29.88 1012 10 16.09344 0 0
5:35 pm 17:35 Partly Cloudy 81 27.3 69 20.4 66 66 ESE 6 9 29.88 1012 10 16.09344 0 0
5:55 pm 17:55 Partly Cloudy 82 27.8 70 21.3 68 68 E 5 7 29.88 1012 10 16.09344 0 0
6:15 pm 18:15 Partly Cloudy 83 28.4 71 21.7 67 67 NNE 3 6 29.88 1012 10 16.09344 0 0
6:35 pm 18:35 Sunny 83 28.1 71 21.5 67 67 ESE 5 7 29.88 1012 10 16.09344 0 0
6:55 pm 18:55 Sunny 82 27.8 71 21.8 70 70 E 8 13 29.88 1012 10 16.09344 0 0
7:15 pm 19:15 Sunny 81 27.4 71 21.4 70 70 E 7 11 29.88 1012 10 16.09344 0 0
7:35 pm 19:35 Sunny 78 25.8 71 21.6 78 78 E 8 13 29.91 1013 10 16.09344 0 0
7:55 pm 19:55 Sunny 77 25.2 71 21.5 80 80 E 6 9 29.91 1013 10 16.09344 0 0
8:15 pm 20:15 Sunny 76 24.6 70 21.3 82 82 E 5 7 29.91 1013 10 16.09344 0 0
8:35 pm 20:35 Clear 74 23.5 70 21.1 86 86 ENE 5 7 29.94 1014 10 16.09344 0 0
8:55 pm 20:55 Clear 73 23 70 21.1 89 89 ENE 6 9 29.94 1014 10 16.09344 0 0
9:15 pm 21:15 Clear 73 22.7 70 21 90 90 E 6 9 29.97 1015 10 16.09344 0 0
9:35 pm 21:35 Clear 73 22.8 70 21.2 91 91 E 7 11 29.94 1014 10 16.09344 0 0
9:55 pm 21:55 Clear 73 23 70 20.9 88 88 E 5 7 29.97 1015 10 16.09344 0 0
10:15 pm 22:15 Clear 73 22.5 69 20.6 89 89 ENE 3 6 29.97 1015 10 16.09344 0 0
10:35 pm 22:35 Clear 73 22.6 69 20.7 89 89 ESE 6 9 29.94 1014 10 16.09344 0 0
10:55 pm 22:55 Clear 73 23 69 20.5 86 86 ESE 6 9 29.94 1014 10 16.09344 0 0
11:15 pm 23:15 Clear 74 23.2 69 20.5 85 85 SE 7 11 29.94 1014 10 16.09344 0 0
11:35 pm 23:35 Clear 73 22.8 68 20.2 85 85 ESE 7 11 29.94 1014 10 16.09344 0 0
11:55 pm 23:55 Clear 73 22.8 68 20.2 85 85 ESE 7 11 29.94 1014 10 16.09344 0 0

Powered by AerisWeather